This is the latest recevied weather packets stored in our database for station/object KK7ISX. If no packets are shown the sender has not sent any weather packets the latest 10 day(s).
| Time | Temp. | Humidity | Pressure | Rain* | Wind** | Luminosity | Snow |
|---|---|---|---|---|---|---|---|
| 1777377494 | 1.11° C | 88% | 1018.4 hPa | 0 mm | - | 0 W/m² | - |
| 1777377190 | 1.11° C | 89% | 1018.3 hPa | 0 mm | - | 0 W/m² | - |
| 1777376888 | 1.11° C | 89% | 1018.4 hPa | 0 mm | - | 0 W/m² | - |
| 1777376584 | 1.11° C | 89% | 1018.5 hPa | 0 mm | - | 0 W/m² | - |
| 1777376281 | 1.11° C | 90% | 1018.4 hPa | 0 mm | - | 0 W/m² | - |
| 1777375975 | 1.11° C | 90% | 1018.4 hPa | 0 mm | - | 0 W/m² | - |
| 1777375670 | 1.11° C | 90% | 1018.3 hPa | 0 mm | - | 0 W/m² | - |
| 1777375365 | 1.67° C | 90% | 1018.4 hPa | 0 mm | - | 0 W/m² | - |
| 1777375062 | 1.11° C | 93% | 1018.3 hPa | 0 mm | - | 0 W/m² | - |
| 1777374757 | 2.78° C | 92% | 1018.5 hPa | 0 mm | - | 0 W/m² | - |
| 1777374453 | 1.11° C | 89% | 1018.4 hPa | 0 mm | - | 0 W/m² | - |
| 1777374152 | 1.67° C | 88% | 1018.4 hPa | 0 mm | - | 0 W/m² | - |
| 1777373851 | 1.67° C | 88% | 1018.3 hPa | 0 mm | - | 0 W/m² | - |
| 1777373549 | 1.67° C | 88% | 1018.2 hPa | 0 mm | - | 0 W/m² | - |
| 1777373245 | 1.67° C | 88% | 1018.2 hPa | 0 mm | - | 0 W/m² | - |
| 1777372940 | 1.67° C | 88% | 1018.5 hPa | 0 mm | - | 0 W/m² | - |
| 1777372635 | 1.67° C | 88% | 1018.1 hPa | 0 mm | - | 0 W/m² | - |
| 1777372335 | 1.67° C | 88% | 1018.1 hPa | 0 mm | - | 0 W/m² | - |
| 1777372033 | 1.67° C | 88% | 1017.8 hPa | 0 mm | - | 0 W/m² | - |
| 1777371729 | 1.67° C | 88% | 1017.6 hPa | 0 mm | - | 0 W/m² | - |
| 1777371427 | 1.67° C | 87% | 1017.9 hPa | 0 mm | - | 0 W/m² | - |
| 1777371123 | 1.67° C | 87% | 1017.9 hPa | 0 mm | - | 0 W/m² | - |
| 1777370819 | 2.22° C | 87% | 1017.8 hPa | 0 mm | - | 0 W/m² | - |
| 1777370515 | 2.22° C | 87% | 1017.8 hPa | 0 mm | - | 0 W/m² | - |
| 1777370211 | 2.22° C | 87% | 1017.6 hPa | 0 mm | - | 0 W/m² | - |
* Rain latest hour (hover to see other rain measurements)
** Current wind speed in m/s (hover to see current wind gust speed)